Lapse_Rate
6.0 6.8 6.6 6.9 6.5 6.5 6.5 6.5 6.5 6.5 6.5 5.1 5.4 6.1 6.3 5.3 6.5 6.5 6.8 7.2 6.2 3.3 4.2 3.9 4.7 5.1 5.6 5.8 5.7 5.9 5.4 5.7 6.2 6.4 6.5 6.4 7.0 6.7 6.8 6.8 6.9 7.1 7.8 8.4 8.0 8.1 7.8 8.1 8.0
6.4 7.6 6.6 6.4 6.5 6.5 6.5 6.5 6.5 6.5 5.8 5.5 5.4 6.2 6.0 6.5 4.6 5.4 6.4 7.6 7.0 4.2 4.2 4.3 4.4 4.8 5.4 5.4 5.6 5.6 5.8 5.7 6.0 6.3 6.5 6.4 6.5 6.6 6.7 7.0 7.1 7.0 7.7 7.8 7.4 6.2 6.5 6.0 7.4
6.9 7.3 6.3 6.5 6.5 6.5 6.5 6.5 6.5 6.3 5.2 5.8 6.3 6.1 5.9 5.9 5.1 5.6 6.4 7.3 7.6 5.8 4.8 4.1 4.3 4.6 5.0 5.1 5.2 5.3 5.8 5.8 5.9 6.1 6.0 6.2 6.3 6.5 6.6 6.8 6.7 6.9 7.5 7.6 7.4 7.2 5.2 5.0 5.7
8.2 7.0 6.2 6.5 6.5 6.5 6.5 6.5 6.6 6.4 5.3 5.2 6.9 6.5 6.8 4.6 6.9 6.7 7.4 7.6 7.9 6.6 6.2 3.1 4.2 4.6 4.8 4.9 4.7 5.4 5.8 5.9 5.9 5.9 6.0 6.2 6.1 6.5 6.4 6.4 6.3 7.2 7.3 7.6 7.8 7.6 7.0 5.7 6.4
7.6 6.6 6.5 6.5 6.5 6.5 6.5 6.1 6.0 6.5 6.1 5.6 5.5 6.3 6.3 5.7 6.8 6.3 7.4 7.7 7.7 7.4 4.6 3.8 4.2 4.6 4.6 4.5 4.7 5.4 5.5 5.9 6.0 5.8 6.0 6.3 6.4 6.4 6.3 6.3 6.9 7.1 7.6 7.7 8.0 7.4 7.0 7.1 7.6
6.4 6.2 6.5 6.5 6.5 6.5 6.5 6.2 6.3 6.4 6.2 5.8 5.8 5.5 5.4 4.4 6.5 5.5 7.0 7.8 7.7 6.9 5.1 4.5 4.3 4.4 4.4 4.7 5.1 5.5 5.4 5.9 6.0 6.2 6.0 6.3 6.5 6.3 6.4 7.3 7.8 8.0 7.8 8.3 8.0 7.5 6.4 6.8 7.3
6.5 6.5 6.5 6.5 6.5 6.5 6.5 5.9 6.4 6.3 6.1 6.2 6.2 6.5 5.5 4.0 6.0 5.2 7.1 7.9 7.3 5.9 6.0 4.9 4.8 4.3 4.1 4.6 4.9 5.3 5.5 5.8 6.0 6.0 6.1 6.4 6.6 6.7 6.7 6.8 7.0 7.5 7.6 7.6 7.8 7.0 6.3 6.4 6.5
6.6 6.5 6.5 6.5 6.5 6.5 6.3 6.2 6.5 6.1 6.4 5.1 5.8 6.5 6.1 4.7 6.5 5.4 6.9 7.4 6.5 6.6 6.1 5.4 4.9 4.7 4.4 4.4 4.7 5.3 5.9 6.0 5.7 5.6 5.6 6.0 6.4 6.4 6.4 6.4 6.5 6.7 6.4 6.8 7.0 6.4 6.2 6.0 6.4
7.7 6.5 6.5 6.5 6.5 6.5 6.2 6.5 6.4 6.9 5.9 6.9 7.1 6.3 6.4 5.4 5.6 6.1 6.1 5.8 5.7 6.2 6.7 6.1 5.3 5.5 5.1 4.9 4.8 5.5 5.8 6.1 5.6 5.9 6.0 6.0 5.9 6.1 6.3 6.2 6.1 6.2 6.4 6.4 6.0 5.6 5.4 5.8 6.6
6.4 6.5 6.5 6.5 6.5 6.5 6.4 6.3 6.2 6.1 6.4 6.4 6.4 5.3 3.5 5.7 6.0 6.1 6.6 5.2 5.5 6.1 6.5 6.7 6.6 6.1 5.9 5.9 4.6 5.1 5.3 5.5 6.2 6.3 6.8 6.9 6.7 6.2 5.6 5.9 5.9 5.9 6.3 6.2 5.7 5.3 5.4 6.3 6.6
6.5 6.5 6.5 6.6 6.8 6.8 6.5 6.4 6.6 6.3 6.5 6.4 6.5 6.9 5.8 3.4 4.4 6.3 5.7 5.0 5.5 6.5 6.4 6.7 6.9 6.9 6.2 6.1 5.6 5.5 6.1 6.0 6.2 7.0 7.2 7.3 6.7 5.4 5.4 5.2 5.6 5.4 5.7 5.5 5.3 5.4 5.9 6.9 7.1
6.5 6.6 6.7 6.7 6.9 6.7 6.5 6.7 6.4 6.4 6.3 7.1 7.0 7.4 7.1 6.6 3.7 6.4 5.6 5.5 5.8 6.5 6.6 6.7 6.9 7.1 6.8 6.4 6.0 5.7 5.9 6.5 6.7 6.7 7.5 7.0 6.8 6.4 5.8 5.6 5.4 5.8 6.3 5.8 5.9 6.1 7.2 8.3 8.0
6.5 6.5 6.8 7.0 6.9 6.8 7.0 6.4 6.5 6.4 6.9 7.4 7.4 7.8 7.4 7.5 5.8 5.3 7.0 6.1 6.8 6.5 6.8 7.2 7.1 7.5 7.0 6.4 6.1 6.0 6.2 6.9 7.4 7.4 7.9 7.0 6.9 7.2 6.8 5.8 5.9 6.5 7.1 7.0 6.4 7.3 8.2 8.4 8.7
6.7 6.6 6.6 6.8 6.8 6.9 6.5 6.5 6.4 6.6 7.2 7.3 7.3 7.2 7.2 7.2 6.7 4.8 7.1 7.1 7.0 6.9 6.6 7.1 6.3 6.7 6.5 6.4 6.1 6.4 6.7 7.1 7.6 7.8 8.3 8.0 7.0 7.8 6.6 5.3 6.0 6.1 7.4 8.2 8.1 7.6 7.2 7.1 8.2
7.0 6.5 6.5 6.5 6.6 6.5 6.8 6.5 6.5 6.8 7.0 6.9 6.9 7.4 7.3 7.2 8.0 6.7 4.7 7.0 6.6 6.6 6.4 6.3 6.1 6.3 6.3 6.5 6.7 6.7 7.3 7.5 7.5 8.0 8.5 8.2 7.4 7.9 6.6 6.3 6.1 6.4 7.8 8.2 8.2 8.0 7.6 6.6 7.7
6.5 6.5 6.5 6.5 6.5 6.5 6.5 6.5 6.5 6.9 6.7 6.5 6.7 6.9 6.6 6.0 6.6 6.9 4.7 6.9 6.2 6.1 6.3 6.6 6.7 6.0 6.3 6.8 7.2 6.7 7.2 7.7 7.7 8.3 8.3 8.4 7.6 7.9 7.6 7.1 6.6 7.0 7.8 7.6 6.6 6.0 5.9 5.7 5.6
6.5 6.5 6.5 6.5 6.5 6.5 6.5 6.5 6.5 6.7 6.7 6.5 6.5 6.6 6.6 6.6 6.8 7.3 6.3 7.3 6.4 6.0 6.3 6.0 5.8 6.0 6.1 6.0 6.4 6.7 6.5 7.1 7.7 8.2 7.7 8.8 7.9 8.0 7.1 8.0 7.0 7.6 6.9 6.3 6.4 5.8 5.7 5.4 5.7
6.5 6.5 6.5 6.5 6.5 6.5 6.5 6.5 6.5 6.4 6.5 6.3 6.3 6.4 6.3 6.9 7.0 6.0 6.6 7.1 6.3 6.2 6.1 6.1 5.4 6.2 6.2 5.2 5.4 6.3 6.4 6.4 7.6 7.5 7.3 8.2 7.8 7.3 7.1 7.8 6.8 7.3 5.5 5.5 5.7 5.8 5.8 5.5 5.3
6.5 6.5 6.5 6.5 6.5 6.5 6.5 6.5 6.5 6.5 6.3 6.4 6.1 6.2 6.2 7.0 6.0 5.5 6.7 7.2 6.8 5.9 5.6 5.8 6.0 5.9 5.4 5.4 5.3 5.9 5.5 6.3 7.1 7.1 7.9 7.7 7.8 7.8 7.3 6.2 6.7 6.4 5.4 5.8 6.2 5.8 5.9 5.7 5.4
6.5 6.5 6.5 6.5 6.5 6.5 6.5 6.5 6.5 6.5 6.5 6.3 6.2 6.1 6.8 7.3 6.5 6.0 6.0 7.3 5.9 6.1 5.6 5.4 5.7 5.4 5.6 5.6 5.6 5.7 5.6 6.1 6.6 6.7 7.8 7.7 7.6 7.5 7.0 6.0 5.9 5.6 5.8 6.2 5.9 5.6 4.9 5.0 5.0
6.5 6.5 6.5 6.5 6.5 6.5 6.5 6.5 6.5 6.5 6.4 6.4 6.4 6.6 6.9 7.0 6.2 6.5 6.2 7.3 6.4 5.7 5.5 5.7 5.3 5.3 5.4 5.2 5.4 5.4 5.1 5.4 5.6 6.2 6.8 7.0 7.0 6.4 6.9 6.7 6.1 5.3 5.2 5.2 5.3 5.5 5.3 4.1 3.9
6.5 6.5 6.5 6.5 6.5 6.5 6.5 6.5 6.5 6.5 6.5 6.5 6.5 6.5 6.7 5.2 4.9 6.2 5.2 6.8 6.0 5.9 5.2 5.6 4.7 5.3 5.2 5.2 5.4 5.1 5.7 5.7 6.1 6.4 6.5 6.3 5.9 5.5 6.1 5.7 5.4 4.9 5.4 5.7 5.2 5.4 4.9 4.5 3.8
6.5 6.5 6.5 6.5 6.5 6.5 6.5 6.5 6.5 6.5 6.5 6.5 6.5 6.6 6.7 5.3 5.3 6.4 6.7 6.4 6.5 5.9 5.7 5.2 4.8 5.5 5.1 6.4 5.8 5.6 6.1 6.0 5.5 6.0 6.3 6.0 5.0 5.3 5.5 5.4 5.0 4.7 5.0 5.0 4.9 4.5 4.9 5.1 4.4
6.5 6.5 6.5 6.5 6.5 6.5 6.5 6.5 6.5 6.5 6.5 6.5 6.5 6.5 6.7 6.8 5.0 5.3 7.3 6.0 6.2 6.0 5.5 4.9 5.2 5.4 5.3 6.4 6.6 6.3 5.4 5.3 5.4 5.8 6.1 6.5 5.4 4.7 4.6 5.1 4.7 4.9 4.4 4.7 4.5 4.5 4.5 4.5 4.9
6.5 6.5 6.5 6.5 6.5 6.5 6.5 6.5 6.5 6.5 6.5 6.5 6.5 6.4 6.3 6.3 6.0 5.2 6.4 6.4 6.5 5.9 5.7 5.7 5.6 5.7 5.8 6.1 6.5 6.1 5.5 5.0 5.5 5.9 5.8 6.0 5.2 4.6 4.4 4.5 4.2 4.5 4.3 4.8 4.7 3.9 4.0 4.0 4.0
6.5 6.5 6.5 6.5 6.5 6.5 6.5 6.5 6.5 6.5 6.5 6.4 6.3 4.9 5.1 5.6 5.3 4.1 6.3 6.6 6.3 6.3 6.3 6.2 6.2 5.8 6.1 6.1 6.6 6.1 5.8 5.5 5.3 5.9 5.7 5.7 4.8 4.3 4.3 4.3 4.3 3.9 4.4 4.0 4.0 3.6 3.4 3.5 3.3
6.5 6.5 6.5 6.5 6.5 6.5 6.5 6.5 6.5 6.5 6.5 6.5 6.5 5.9 5.8 5.9 5.4 6.6 6.7 6.5 6.4 6.5 6.2 6.4 6.3 6.1 6.3 6.2 6.4 6.6 6.3 5.6 6.0 5.9 5.4 5.1 5.0 4.7 4.4 4.5 4.4 3.9 3.9 3.8 3.3 3.6 3.7 3.4 3.2
6.5 6.5 6.5 6.5 6.5 6.5 6.5 6.5 6.5 6.5 6.5 6.5 6.5 6.5 6.3 6.3 6.5 5.9 6.2 5.8 6.2 6.2 6.1 6.3 6.5 6.2 6.2 6.1 6.3 6.7 6.5 6.2 6.2 5.7 5.2 5.4 5.0 4.9 4.7 4.5 4.3 4.6 4.5 4.3 3.9 3.9 4.0 3.8 3.4
6.5 6.5 6.5 6.5 6.5 6.5 6.5 6.5 6.5 6.5 6.5 6.5 6.5 6.3 5.9 5.0 6.8 6.3 5.6 5.8 6.1 6.0 5.9 6.0 6.3 6.4 6.0 6.2 6.3 6.3 6.5 6.1 5.8 5.3 5.3 5.6 5.2 5.2 4.7 4.5 4.6 4.9 5.0 4.8 4.5 4.4 4.2 3.9 3.8
6.5 6.5 6.5 6.5 6.5 6.5 6.5 6.5 6.5 6.5 6.5 6.5 6.5 6.4 5.8 6.2 6.2 5.5 5.0 4.8 5.6 5.9 5.8 5.9 6.2 6.1 6.1 6.3 6.3 6.3 6.7 6.1 5.7 5.7 6.1 4.3 5.0 4.6 5.0 4.7 5.0 5.1 5.3 5.4 4.9 4.9 4.9 4.6 4.5
Wind_Speed
17 10 7 3 4 6 14 13 10 15 15 10 8 5 7 8 6 4 7 9 20 21 23 24 22 21 21 20 20 16 17 19 19 19 19 20 19 20 22 23 23 25 26 27 27 27 25 27 27
16 8 3 3 7 14 16 18 18 12 11 10 8 4 7 7 9 8 8 12 19 21 24 22 24 22 23 22 21 18 18 19 19 19 19 21 21 22 24 24 24 25 24 25 26 25 27 25 23
8 5 2 4 9 21 15 13 13 19 12 5 4 4 6 6 10 13 10 20 18 18 24 24 24 23 23 22 22 20 19 19 20 19 20 21 22 22 24 25 23 25 24 23 23 22 24 23 22
3 2 3 6 25 24 23 9 15 9 10 9 1 7 3 7 6 8 14 19 17 18 21 28 25 23 22 21 21 21 19 20 20 20 20 21 23 24 24 23 24 26 22 22 22 22 21 19 19
3 3 4 9 30 14 13 9 15 19 16 8 9 7 4 3 9 14 12 18 18 17 21 25 26 23 23 21 21 22 21 20 21 21 21 21 24 24 24 23 23 25 23 20 21 21 20 15 15
3 3 7 16 29 8 8 16 21 22 18 7 10 9 6 9 9 9 11 14 16 15 19 23 26 25 23 21 21 21 21 21 22 21 23 22 22 24 25 24 22 22 21 20 20 20 19 14 11
2 5 12 21 25 19 12 9 16 15 17 19 9 13 6 7 7 11 9 12 13 17 15 19 21 23 23 23 21 22 22 22 21 23 23 23 21 21 24 25 22 23 21 19 19 18 16 13 9
3 4 11 12 17 20 12 17 16 14 16 14 6 7 13 9 8 10 9 12 14 15 16 14 18 21 19 20 24 23 23 24 23 23 25 24 22 21 21 22 22 22 22 20 19 18 15 11 9
6 5 10 15 18 15 15 21 14 14 5 6 10 10 18 20 16 11 8 9 12 12 16 14 14 18 19 17 20 22 25 25 26 25 26 24 16 17 20 20 23 22 21 21 20 17 13 10 7
5 6 9 13 18 19 19 21 18 17 20 16 17 19 20 6 16 21 17 15 17 17 16 15 15 15 18 17 18 17 19 19 17 19 19 15 17 17 18 22 23 22 21 21 19 17 17 10 3
9 17 15 19 21 24 22 21 18 20 21 14 12 20 12 10 20 19 19 20 19 21 14 18 17 16 16 11 15 15 15 16 16 18 18 17 15 18 16 15 16 17 20 14 15 15 15 14 8
18 20 20 22 21 23 25 23 23 21 20 16 15 21 12 13 13 14 18 17 16 18 18 20 19 17 16 15 11 15 12 14 14 16 16 17 12 13 14 12 14 14 15 14 16 14 13 14 14
17 18 19 22 22 25 23 26 25 24 19 18 20 20 16 16 18 20 15 15 17 18 17 18 17 17 14 15 10 12 10 12 17 17 17 19 13 8 13 12 14 14 16 14 13 11 10 6 5
14 21 21 21 23 22 25 28 24 20 16 22 26 23 18 16 12 15 17 17 19 18 18 17 16 17 16 14 16 11 14 15 16 13 14 20 16 12 9 9 10 13 15 12 11 10 8 6 6
15 20 21 22 19 22 23 26 31 23 16 23 26 24 23 18 18 19 18 19 17 15 19 18 18 17 15 17 14 11 14 16 12 14 16 19 20 17 11 8 6 12 15 11 12 10 11 7 6
15 18 18 20 17 25 20 27 31 23 23 27 27 22 18 21 19 20 17 21 20 17 19 17 16 18 15 15 13 10 12 14 13 15 15 18 21 19 15 7 6 15 12 12 8 4 4 4 4
10 14 17 25 17 19 19 28 31 26 27 25 24 27 18 22 19 17 27 26 24 19 21 15 17 18 17 12 9 11 12 9 12 15 12 17 20 19 13 10 8 14 10 7 5 3 4 4 3
9 12 16 22 20 19 25 27 26 27 21 23 28 25 18 18 21 16 19 29 23 20 22 17 16 18 17 9 7 8 8 7 13 10 10 15 16 19 15 11 9 13 4 4 4 5 3 4 4
20 21 27 28 23 24 23 24 24 22 22 26 26 24 14 17 18 17 20 28 25 20 20 20 20 18 14 11 10 9 7 8 7 7 15 14 14 16 16 9 10 10 5 5 6 4 5 1 4
21 23 31 30 22 20 16 21 25 27 28 21 16 14 17 18 14 23 24 24 23 25 20 19 20 18 15 12 11 10 7 5 5 7 13 13 15 13 11 8 6 6 5 6 5 6 3 2 3
21 23 28 27 22 18 19 26 28 25 18 18 19 16 16 19 14 20 23 32 30 24 22 20 21 18 16 17 11 9 5 6 4 5 7 8 16 14 11 11 9 6 4 5 5 5 7 4 3
21 22 30 29 15 11 6 9 15 20 22 17 19 15 17 14 16 19 21 27 25 24 20 21 20 19 16 17 14 17 10 11 9 7 7 6 14 13 14 13 12 7 5 6 5 5 4 4 4
14 13 19 19 17 13 19 8 6 15 22 22 21 18 18 18 16 16 28 23 22 21 20 20 20 18 18 18 15 13 12 9 7 8 10 7 6 12 12 13 11 7 4 6 6 6 5 4 4
7 6 14 14 10 6 11 6 3 11 20 19 20 23 22 17 14 14 24 22 19 19 19 19 20 18 18 16 17 16 16 13 11 10 9 8 7 8 8 12 9 10 6 6 6 6 7 5 4
2 6 4 3 2 4 2 4 8 10 6 16 23 22 18 15 15 12 18 18 20 21 20 18 20 18 18 16 18 16 16 17 17 13 11 11 9 7 9 8 7 6 7 8 7 6 6 6 5
12 9 4 6 6 8 6 4 3 9 7 15 14 12 12 12 14 13 18 19 19 20 19 20 20 17 19 17 16 16 16 12 12 13 10 10 10 10 12 11 8 8 10 9 8 5 5 6 5
4 4 6 5 9 5 5 5 6 2 7 19 7 9 13 17 18 17 18 19 16 17 18 19 20 17 19 17 14 15 15 14 13 16 12 10 10 10 13 13 11 9 9 9 8 7 7 7 6
8 6 3 2 5 5 5 5 9 17 12 12 5 9 14 16 20 18 13 10 11 15 14 16 17 18 17 18 14 12 14 13 12 11 13 12 10 11 13 13 11 10 9 10 9 7 8 9 7
3 4 3 3 2 2 4 2 7 13 9 9 6 4 7 9 14 15 16 13 13 14 14 14 14 15 15 15 15 11 12 13 11 11 10 9 10 12 13 13 12 11 11 10 9 9 9 10 8
4 6 7 3 4 4 3 4 5 6 6 8 2 7 3 9 11 13 13 11 10 12 13 13 13 14 14 15 15 14 12 12 12 14 13 10 11 10 13 12 14 14 14 13 12 12 11 11 10
Wind_Direction
314 301 295 284 255 228 231 233 237 255 272 236 247 209 248 211 206 187 149 143 132 132 147 150 153 152 151 147 146 145 138 135 134 129 124 123 119 116 114 111 108 104 105 102 103 103 106 102 101
306 308 254 265 235 240 235 232 234 235 260 289 309 176 307 275 87 120 131 141 135 137 146 150 151 146 146 144 146 144 142 139 136 130 128 125 120 118 115 108 105 103 105 105 108 110 107 104 107
281 311 263 214 239 235 251 218 221 238 222 280 307 280 185 274 102 143 141 133 136 140 150 147 150 149 147 147 144 144 145 142 138 131 129 127 124 118 114 110 107 105 104 104 108 111 110 113 114
286 222 265 251 238 239 244 277 289 297 233 163 163 282 37 34 135 136 143 139 138 145 152 144 150 150 147 146 143 145 146 144 138 133 130 129 123 120 115 111 110 110 110 112 114 111 112 117 122
271 270 255 243 253 261 269 271 254 280 282 196 178 243 167 43 91 123 156 147 144 151 136 145 148 148 147 148 147 146 145 145 139 133 131 131 126 122 120 115 112 113 114 116 118 115 113 119 119
306 307 251 244 257 266 264 260 282 287 299 258 209 197 228 143 124 145 150 152 145 140 144 148 147 148 146 147 147 148 146 146 140 134 127 128 127 129 127 120 114 114 117 118 116 115 118 122 119
278 277 250 267 279 286 303 282 266 277 279 282 321 199 221 150 151 148 162 147 136 136 141 145 150 146 146 147 149 151 148 146 143 137 129 128 131 132 127 120 117 116 114 117 114 116 118 120 102
316 280 265 266 279 289 298 296 304 294 280 346 320 252 210 163 160 152 162 153 131 144 143 147 150 150 149 151 152 155 153 147 141 134 131 129 131 128 123 124 124 122 122 121 120 119 119 118 114
300 259 265 271 278 294 294 293 295 294 273 303 283 296 304 157 154 157 160 135 138 144 148 157 157 155 152 150 153 153 149 147 139 138 138 133 129 127 130 128 127 125 123 123 122 120 118 122 134
206 246 254 271 281 288 291 293 301 290 279 267 289 291 360 174 166 165 173 159 162 157 160 162 162 158 155 152 152 148 146 143 145 140 144 135 145 144 130 132 129 126 125 123 125 130 131 124 146
234 250 270 271 282 288 292 291 291 278 267 263 271 283 353 329 313 183 173 169 171 166 167 163 165 162 157 151 156 147 151 148 144 152 154 146 125 122 123 126 121 125 124 121 130 148 163 153 179
261 259 264 274 277 282 282 291 282 281 274 267 268 280 301 291 303 244 181 180 172 173 175 164 167 163 159 148 154 153 155 154 151 171 160 141 133 134 137 143 142 147 140 147 152 177 196 166 174
264 267 271 277 276 275 274 270 268 269 285 290 274 270 271 278 299 312 207 188 180 182 177 170 164 160 154 149 151 157 159 158 157 173 149 146 145 146 149 152 158 159 155 160 178 190 129 133 141
281 284 279 278 275 282 266 263 265 256 260 272 268 261 260 267 288 284 253 202 192 183 170 172 155 157 152 156 154 162 159 156 158 160 158 149 146 148 135 144 160 143 163 168 154 130 145 128 121
290 278 271 261 263 261 267 272 258 255 248 254 261 262 263 244 257 259 311 204 193 185 170 166 157 157 155 154 155 157 161 155 157 161 162 140 147 154 154 162 145 156 168 157 142 145 128 121 107
274 268 268 270 252 255 246 256 253 250 244 243 253 252 240 261 264 277 272 238 190 175 179 165 159 156 156 156 155 152 151 158 157 167 163 146 153 154 156 164 139 164 168 146 134 131 124 129 137
219 265 257 280 260 258 243 257 257 241 237 243 243 248 222 237 237 239 251 262 189 175 176 173 151 154 150 154 148 149 146 146 157 163 156 155 149 157 147 166 149 151 147 138 142 138 143 143 156
261 252 270 268 282 283 274 256 251 247 247 245 245 249 222 234 229 265 266 275 180 173 174 171 160 156 151 143 131 137 138 150 163 160 148 156 151 156 157 168 161 152 146 154 150 155 156 152 163
265 272 272 269 271 262 264 272 271 272 243 241 256 231 205 228 240 243 261 259 186 171 167 168 158 160 149 146 151 155 161 161 160 146 157 151 156 153 163 167 151 158 155 169 160 148 150 149 147
258 268 270 273 268 266 285 268 275 268 242 231 233 205 206 208 226 259 261 235 172 168 168 165 158 158 150 158 155 164 159 144 138 140 149 150 150 164 157 150 150 153 155 163 168 144 129 149 150
250 252 264 263 289 280 282 276 263 255 236 225 229 214 210 208 199 249 255 235 167 163 164 170 155 159 159 159 155 156 121 118 113 135 146 153 156 165 164 152 149 166 163 166 175 152 150 150 193
271 248 256 267 278 268 173 295 242 222 230 212 214 207 217 200 200 243 271 187 161 157 157 160 154 163 163 160 165 158 161 158 162 162 148 150 153 162 172 167 159 165 161 161 158 160 163 141 170
256 280 276 262 267 279 272 254 270 182 215 210 213 209 215 211 206 199 266 148 156 158 162 159 157 165 167 168 163 161 158 157 151 152 148 158 156 167 171 168 160 160 160 167 164 161 177 169 156
272 291 266 259 271 245 274 219 166 178 217 217 220 216 205 196 212 205 227 155 159 160 155 157 160 168 168 164 162 165 164 153 153 159 162 172 170 170 174 168 163 165 162 171 171 173 181 187 169
180 286 289 291 253 302 287 247 273 210 194 222 220 212 206 190 174 160 188 173 160 162 161 161 163 170 166 167 168 167 166 164 165 166 175 172 175 174 179 170 172 179 167 178 169 166 176 182 181
284 255 338 314 329 298 343 262 350 338 339 294 267 172 184 166 153 159 182 165 167 164 167 167 166 168 170 172 173 172 172 171 171 174 176 183 182 179 177 179 177 174 173 170 167 166 181 179 190
329 326 286 282 271 283 280 306 341 75 343 323 248 181 173 159 151 171 193 170 166 165 167 169 169 172 177 174 176 178 176 174 175 180 174 180 177 179 178 181 181 179 177 173 170 178 186 185 192
218 324 326 245 326 315 325 11 331 336 339 327 110 162 148 156 154 172 169 177 159 158 161 171 177 177 177 177 180 187 178 178 169 167 179 181 180 174 174 178 180 182 179 175 177 187 192 192 199
208 267 244 303 272 302 326 344 331 321 325 328 109 104 140 139 149 162 151 159 161 157 165 169 174 179 181 178 184 189 182 179 168 170 174 179 172 175 174 174 175 178 184 182 188 199 196 197 198
313 297 297 271 336 279 211 286 345 328 356 13 341 140 172 147 150 150 134 135 140 160 167 172 176 182 177 184 183 185 192 177 175 180 182 156 167 167 173 173 181 186 187 188 190 202 203 203 203